Location: Brabourne
(51.1333°N, 1.0000°E)
Time: 01:05:47
(UTC+00:00)

GP-B - Visible Passes

Search period start: 24 October 2021 00:00
Search period end: 03 November 2021 00:00
Orbit: 631 x 634 km, 89.8° (Epoch: 22 October)

Date Brightness Start Highest point End Pass type
(mag) Time Alt. Az. Time Alt. Az. Time Alt. Az.
24 Oct 5.2 03:29:12 19° N 03:29:12 19° N 03:30:26 10° N visible
25 Oct 5.4 03:51:15 14° N 03:51:15 14° N 03:51:58 10° N visible
26 Oct 5.6 04:13:15 10° NNW 04:13:15 10° NNW 04:13:18 10° NNW visible
